Tracking 25949 objects as of 8-Aug-2022
HD Live streaming from Space Station
objects crossing your sky now

COSMOS 1275 DEB

Track COSMOS 1275 DEB now!
10-day predictions


NORAD ID: 42222
Int'l Code: 1981-053UN
Perigee: 844.7 km
Apogee: 947.5 km
Inclination: 83.0 °
Period: 102.8 minutes
Semi major axis: 7267 km
RCS: Unknown
Launch date: June 4, 1981
Source: Commonwealth of Independent States (former USSR) (CIS)
Launch site: PLESETSK MISSILE AND SPACE COMPLEX (PKMTR)

Note: This is SATELLITE DEBRIS
aabbcc
Your satellite tracking list
Your tracking list is empty




NASA's NSSDC Master Catalog

Two Line Element Set (TLE):
1 42222U 81053UN  22218.61910442  .00001453  00000-0  93310-3 0  9993
2 42222  82.9866 175.3348 0070722   8.8045 351.4348 14.01396423444314
Source of the keplerian elements: AFSPC